Weather History for Morgantown, WV

Change the Weather History Date:

Sunday, January 20, 2013

  Actual Average Record
Temperature  
Mean Temperature 37 °F 31 °F  
Max Temperature 47 °F 39 °F 69 °F (1951)
Min Temperature 27 °F 24 °F -17 °F (1985)
Degree Days  
Heating Degree Days 28 34  
Month to date heating degree days 540 677  
Since 1 July heating degree days 2398 2661  
Cooling Degree Days 0 0  
Month to date cooling degree days 0 0  
Year to date cooling degree days 0 0  
Moisture  
Dew Point 17 °F    
Average Humidity 38    
Maximum Humidity 53    
Minimum Humidity 23    
Precipitation  
Precipitation 0.00 in 0.10 in 0.92 in (1986)
Month to date precipitation 1.41 1.81  
Year to date precipitation 1.41 1.81  
Sea Level Pressure  
Sea Level Pressure 30.02 in    
Wind  
Wind Speed 9 mph (WSW)    
Max Wind Speed 18 mph    
Max Gust Speed 33 mph    
Visibility 10 miles    
Events      
T = Trace of Precipitation, MM = Missing Value Source: NWS Daily Summary

Daily Weather History Graph

Daily Weather History Graph

Search for Another Location

Airport:

Trip Planner

Search our weather history database for the weather conditions in past years. The results will help you decide how hot, cold, wet, or windy it might be!

Date:

Astronomy

Jan. 20, 2013 Rise Set
Actual Time 7:36 AM EST 5:25 PM EST
Civil Twilight 7:06 AM EST 5:55 PM EST
Nautical Twilight 6:34 AM EST 6:27 PM EST
Astronomical Twilight 6:01 AM EST 7:00 PM EST
Moon 12:25 PM EST (1/20) 2:07 AM EST (1/20)
Length of Visible Light 10h 48m
Length of Day
9h 49m
Waxing Gibbous, 66% of the Moon is Illuminated
Jan 20
Waxing Gibbous
Jan 26
Full
Feb 3
Last Quarter
Feb 10
New
Feb 17
First Quarter

Hourly Weather History & Observations

Time (EST) Temp. Windchill Dew Point Humidity Pressure Visibility Wind Dir Wind Speed Gust Speed Precip Events Conditions
12:53 AM 46.0 °F 41.4 °F 18.0 °F 33% 29.91 in 10.0 mi SSW 9.2 mph 17.3 mph N/A   Clear
1:53 AM 46.0 °F 41.0 °F 21.0 °F 37% 29.90 in 10.0 mi SSW 10.4 mph 17.3 mph N/A   Clear
2:53 AM 45.0 °F 38.9 °F 23.0 °F 42% 29.90 in 10.0 mi SSW 12.7 mph 24.2 mph N/A   Mostly Cloudy
3:53 AM 45.0 °F 40.1 °F 25.0 °F 46% 29.88 in 10.0 mi SSW 9.2 mph 23.0 mph N/A   Clear
4:53 AM 45.0 °F 37.9 °F 27.0 °F 49% 29.88 in 10.0 mi SW 16.1 mph 29.9 mph N/A   Clear
5:53 AM 44.1 °F 38.1 °F 27.0 °F 51% 29.88 in 10.0 mi SW 11.5 mph 17.3 mph N/A   Partly Cloudy
7:53 AM 44.1 °F 38.6 °F 28.9 °F 55% 29.91 in 10.0 mi SW 10.4 mph 17.3 mph N/A   Overcast
8:53 AM 44.1 °F 40.1 °F 28.9 °F 55% 29.94 in 10.0 mi Variable 6.9 mph 27.6 mph N/A   Scattered Clouds
9:53 AM 43.0 °F 35.7 °F 26.1 °F 51% 29.98 in 10.0 mi West 15.0 mph 21.9 mph N/A   Overcast
10:53 AM 42.1 °F 33.9 °F 15.1 °F 34% 30.01 in 10.0 mi West 17.3 mph 24.2 mph N/A   Clear
11:53 AM 41.0 °F 34.7 °F 10.0 °F 28% 30.02 in 10.0 mi WSW 10.4 mph 23.0 mph N/A   Clear
1:53 PM 39.9 °F 32.9 °F 9.0 °F 28% 30.04 in 10.0 mi SW 11.5 mph 20.7 mph N/A   Clear
2:53 PM 37.9 °F 30.9 °F 10.0 °F 32% 30.06 in 10.0 mi West 10.4 mph 24.2 mph N/A   Clear
3:53 PM 37.9 °F 31.5 °F 10.0 °F 32% 30.07 in 10.0 mi WNW 9.2 mph 17.3 mph N/A   Clear
4:53 PM 36.0 °F 27.1 °F 10.0 °F 34% 30.08 in 10.0 mi West 13.8 mph - N/A   Clear
5:53 PM 35.1 °F 29.3 °F 10.0 °F 35% 30.11 in 10.0 mi West 6.9 mph - N/A   Clear
6:53 PM 33.1 °F 30.0 °F 10.0 °F 38% 30.13 in 10.0 mi Variable 3.5 mph - N/A   Clear
7:53 PM 30.9 °F 24.3 °F 10.9 °F 43% 30.14 in 10.0 mi West 6.9 mph - N/A   Clear
8:53 PM 30.0 °F 25.2 °F 12.0 °F 47% 30.14 in 10.0 mi WNW 4.6 mph - N/A   Partly Cloudy
9:53 PM 28.9 °F 25.2 °F 12.9 °F 51% 30.14 in 10.0 mi NW 3.5 mph - N/A   Mostly Cloudy
10:53 PM 28.0 °F - 12.9 °F 53% 30.15 in 10.0 mi Calm Calm - N/A   Overcast
11:53 PM 27.0 °F - 12.9 °F 56% 30.14 in 10.0 mi Calm Calm - N/A   Overcast